This is the latest recevied weather packets stored in our database for station/object N3OZD-10. If no packets are shown the sender has not sent any weather packets the latest 10 day(s).
| Time | Temp. | Humidity | Pressure | Rain* | Wind** | Luminosity | Snow |
|---|---|---|---|---|---|---|---|
| 1777906646 | 17.78° C | 41% | 1013.9 hPa | 0 mm | - | - | - |
| 1777906350 | 17.78° C | 42% | 1013.9 hPa | 0 mm | - | - | - |
| 1777906046 | 17.78° C | 43% | 1014 hPa | 0 mm | - | - | - |
| 1777905748 | 17.78° C | 46% | 1014.1 hPa | 0 mm | - | - | - |
| 1777905446 | 17.22° C | 48% | 1014 hPa | 0 mm | - | - | - |
| 1777905154 | 16.67° C | 42% | 1014 hPa | 0 mm | - | - | - |
| 1777904846 | 16.67° C | 47% | 1014.1 hPa | 0 mm | - | - | - |
| 1777904546 | 16.11° C | 47% | 1014.1 hPa | 0 mm | - | - | - |
| 1777904246 | 16.11° C | 47% | 1014 hPa | 0 mm | - | - | - |
| 1777903947 | 15.56° C | 48% | 1014.1 hPa | 0 mm | - | - | - |
| 1777903646 | 14.44° C | 48% | 1014.1 hPa | 0 mm | - | - | - |
| 1777903346 | 16.11° C | 46% | 1014.1 hPa | 0 mm | - | - | - |
| 1777903046 | 16.11° C | 50% | 1014.2 hPa | 0 mm | - | - | - |
| 1777902746 | 15.56° C | 46% | 1014.2 hPa | 0 mm | - | - | - |
| 1777902146 | 15.56° C | 48% | 1014.3 hPa | 0 mm | - | - | - |
| 1777901847 | 15° C | 50% | 1014.3 hPa | 0 mm | - | - | - |
| 1777901546 | 14.44° C | 50% | 1014.3 hPa | 0 mm | - | - | - |
| 1777901246 | 14.44° C | 51% | 1014.3 hPa | 0 mm | - | - | - |
| 1777900946 | 13.89° C | 56% | 1014.3 hPa | 0 mm | - | - | - |
| 1777900648 | 13.89° C | 55% | 1014.3 hPa | 0 mm | - | - | - |
| 1777900346 | 14.44° C | 53% | 1014.3 hPa | 0 mm | - | - | - |
| 1777900048 | 14.44° C | 56% | 1014.4 hPa | 0 mm | - | - | - |
| 1777899747 | 14.44° C | 53% | 1014.4 hPa | 0 mm | - | - | - |
| 1777899446 | 14.44° C | 56% | 1014.5 hPa | 0 mm | - | - | - |
| 1777899146 | 13.89° C | 55% | 1014.5 hPa | 0 mm | - | - | - |
* Rain latest hour (hover to see other rain measurements)
** Current wind speed in m/s (hover to see current wind gust speed)